Flag for U.S.A. Weather past 2 weeks in Miami, Florida, U.S.A.

Now
81 °F

Broken clouds.


Feels Like: 85 °F
Forecast: 74 / 82 °F
Wind: 12 mph from Northeast

Location: Miami International Airport


UV Index: 5 (Moderate)

Visibility: 10 mi


Pressure: 30.07 "Hg

Humidity: 72%

Dew point: 71 °F

Location of MiamiLocation

Historic Weather in Miami

°F

Miami temperature yesterday

Maximum temperature yesterday: 83 °F (at 3:53 PM)
Minimum temperature yesterday: 72 °F (at 6:53 AM)
Average temperature yesterday: 77 °F

Past Weeks' High & Low Weather Summary

 TemperatureHumidityPressure
High89 °F (Apr 8, 1:53 PM)94% (Apr 8, 2:53 AM)30.26 "Hg (Apr 8, 2:53 AM)
Low65 °F (Apr 10, 1:53 AM)32% (Apr 9, 4:53 PM)29.78 "Hg (Apr 8, 4:53 PM)
Average77 °F68%30.04 "Hg
* Reported Apr 2 4:53 PM — Apr 17 4:53 PM, Miami, Weather by CustomWeather, © 2014

Note: Actual official high and low records may vary slightly from our data, if they occured in-between our weather recording intervals... More about our weather records

Advertising

Historic Weather Conditions — Data for Previous 24 hours

 ConditionsComfort  
Time TempWeatherWind HumidityBarometerVisibility
4:53 PM
Apr 17
81 °FBroken clouds.12 mph72%30.07 "Hg10 mi
3:53 PM79 °FBroken clouds.14 mph79%30.06 "Hg10 mi
2:53 PM78 °FCloudy.8 mph82%30.10 "Hg10 mi
1:53 PM77 °FBroken clouds.12 mph82%30.12 "Hg10 mi
12:53 PM79 °FBroken clouds.9 mph77%30.13 "Hg10 mi
11:53 AM79 °FBroken clouds.13 mph82%30.14 "Hg10 mi
10:53 AM79 °FLight rain. Mostly cloudy.10 mph79%30.13 "Hg9 mi
9:53 AM81 °FPartly sunny.12 mph72%30.11 "Hg10 mi
8:53 AM80 °FPartly sunny.10 mph74%30.10 "Hg10 mi
7:53 AM78 °FPartly cloudy.6 mph82%30.09 "Hg10 mi
6:53 AM77 °FPartly cloudy.8 mph82%30.06 "Hg10 mi
5:53 AM77 °FPartly cloudy.8 mph82%30.05 "Hg10 mi
4:53 AM76 °FPartly cloudy.9 mph85%30.04 "Hg10 mi
3:53 AM76 °FPassing clouds.12 mph82%30.03 "Hg10 mi
2:53 AM76 °FPassing clouds.9 mph82%30.04 "Hg10 mi
1:53 AM76 °FPassing clouds.12 mph80%30.05 "Hg10 mi
12:53 AM77 °FPartly cloudy.15 mph77%30.07 "Hg10 mi
11:53 PM
Apr 16
77 °FOvercast.9 mph77%30.08 "Hg10 mi
10:53 PM77 °FPassing clouds.8 mph74%30.07 "Hg10 mi
9:53 PM77 °FMostly cloudy.10 mph74%30.07 "Hg10 mi
8:53 PM77 °FOvercast.13 mph74%30.05 "Hg10 mi
7:53 PM77 °FCloudy.14 mph74%30.03 "Hg10 mi
6:53 PM78 °FMostly cloudy.14 mph71%30.01 "Hg10 mi
5:53 PM79 °FBroken clouds.12 mph69%30.00 "Hg10 mi
Weather by CustomWeather, © 2014

See weather overview